Location: ????????
(37.7683°N, 24.0020°E)
Time: 22:14:48
(UTC+00:00)

Daily predictions for brighter satellites

Satellite Brightness Start Highest point End
(mag) Time Altitude Azimuth Time Altitude Azimuth Time Altitude Azimuth
Cosmos 540 Rocket 3.4 16:18:57 10° NNW 16:24:04 73° ENE 16:29:08 10° SSE
H-2A R/B 4.3 16:20:08 10° SSW 16:24:41 32° W 16:29:23 10° NNW
Cosmos 968 Rocket 4.4 16:20:32 10° SSE 16:24:54 27° E 16:29:16 10° NE
USA 229 DEB 4.0 16:18:20 10° NNW 16:25:54 82° ENE 16:33:52 10° SE
USA 229 4.0 16:18:26 10° NNW 16:25:59 81° ENE 16:33:58 10° SE
YAOGAN 1 3.8 16:23:50 10° ESE 16:27:06 21° ENE 16:30:22 10° NNE
MINOTAUR 4 R/B 4.1 16:24:57 10° N 16:28:26 83° WNW 16:31:53 10° SSW
Cosmos 1674 Rocket 4.3 16:24:29 10° NNE 16:28:27 31° ENE 16:32:24 10° SE
Okean O Rocket 3.0 16:27:37 10° ESE 16:30:42 19° ENE 16:33:49 10° NNE
Cosmos 468 Rocket 4.5 16:27:04 10° NNW 16:32:12 67° WSW 16:37:20 10° S
Lacrosse 4 Rocket 3.0 16:31:10 10° SE 16:33:33 15° ESE 16:35:57 10° ENE
Cosmos 2227 Rocket 3.8 16:31:59 10° NW 16:37:13 40° WSW 16:42:26 10° S
Cosmos 2322 Rocket 3.2 16:34:20 10° SSE 16:38:48 24° ESE 16:43:18 10° NE
SKYMED 2 3.8 16:35:18 10° N 16:39:39 78° WNW 16:43:58 10° SSW
CZ-4B R/B 3.5 16:39:34 10° SE 16:44:36 43° ENE 16:49:45 10° N
Cosmos 1980 Rocket 3.3 16:39:18 10° SW 16:44:44 48° WNW 16:50:11 10° N
PSLV R/B 3.7 16:41:16 10° SSE 16:44:53 57° ENE 16:48:29 10° N
Cosmos 1726 2.0 16:42:56 10° S 16:46:33 73° E 16:50:11 10° N
Hubble Space Telescope 3.3 16:44:54 10° SW 16:46:47 13° SSW 16:48:39 10° S
CZ-4 R/B 4.3 16:43:04 10° SSE 16:47:09 79° ENE 16:51:17 10° N
Timation 2 Rocket 4.0 16:42:16 10° NNW 16:48:36 61° ENE 16:54:36 10° SE
Cosmos 1470 3.9 16:47:21 10° SE 16:50:17 21° E 16:53:14 10° NE
Cosmos 841 Rocket 3.4 16:45:25 10° NNW 16:50:36 81° ENE 16:55:44 10° SSE
SEDSat Delta rocket 4.4 16:46:12 10° WSW 16:51:41 46° S 16:57:09 13° ESE
Cosmos 2292 Rocket 4.4 16:47:17 10° SSE 16:52:23 36° E 16:56:22 10° NNE
Meteor 2-14 Rocket 4.4 16:47:00 10° S 16:53:03 79° E 16:59:07 10° N
ARGOS Delta rocket 3.9 16:49:32 10° NNE 16:54:43 73° E 16:59:34 10° S
Cosmos 1378 Rocket 3.5 16:50:47 10° N 16:55:07 63° E 16:59:23 10° SSE
Cosmos 1733 Rocket 4.5 16:58:21 10° SSW 17:02:34 42° W 17:06:48 10° N
COBE Rocket 3.8 17:00:17 10° SSE 17:05:07 70° ENE 17:09:52 10° N
Cosmos 2278 4.4 17:02:23 10° SW 17:07:58 59° WNW 17:13:36 10° NNE
SL-16 R/B 2.1 17:03:12 10° S 17:08:47 65° ESE 17:14:24 10° NNE
Cosmos 1092 Rocket 4.3 17:03:12 10° SSE 17:09:07 44° E 17:15:00 10° NNE
Cosmos 1844 Rocket 4.1 17:06:05 10° N 17:10:03 19° NE 17:11:18 18° ENE
PAYLOAD B 4.4 17:04:48 10° S 17:10:18 76° WSW 17:15:49 10° NNW
Cosmos 2221 Rocket 4.4 17:08:15 10° NNW 17:12:42 57° W 17:17:09 10° S
Meteor 2-21 Rocket 4.3 17:09:37 10° S 17:15:39 83° E 17:21:44 10° N
Cosmos 1570 Rocket 4.3 17:12:05 10° N 17:17:08 45° ENE 17:20:28 20° SE
BREEZE-M DEB (TANK) 2.9 17:19:33 10° NW 17:21:53 46° NE 17:23:02 33° E
Landsat 5 4.1 17:18:06 10° NNE 17:22:14 36° E 17:26:15 10° SSE
DMSP B5D1-3 4.4 17:18:43 10° NNE 17:23:51 88° ESE 17:28:58 10° SSW
SJ-6B 4.5 17:26:35 18° NE 17:26:35 18° NE 17:28:04 10° NNE
DELTA 2 R/B(2) 4.1 17:24:28 10° W 17:26:29 74° SSW 17:27:15 45° ESE
Cosmos 1437 Rocket 2.8 17:24:03 10° SSW 17:27:47 75° W 17:31:32 10° N
HJ-1C 3.4 17:26:06 10° S 17:29:11 70° W 17:32:17 10° NNW
Cosmos 2263 Rocket 2.7 17:23:57 10° NNW 17:29:34 63° WSW 17:35:10 10° S
Meteor 2-16 Rocket 4.4 17:23:32 10° S 17:29:39 90° W 17:35:51 10° N
Meteor 1-24 Rocket 3.8 17:25:56 10° N 17:31:04 48° ENE 17:33:56 25° SE
Feng Yun 1-1 Rocket 4.1 17:26:16 10° SSE 17:31:44 69° ENE 17:37:07 10° N
USA 267 3.2 17:27:04 20° SE 17:31:53 84° NE 17:38:28 10° NW
OAO 2 Rocket 3.4 17:31:46 10° W 17:36:38 63° S 17:38:09 41° ESE
Cosmos 1486 Rocket 4.1 17:34:44 10° S 17:39:51 52° ESE 17:45:02 10° NNE
DNEPR-1 R/B 3.6 17:35:33 10° SSW 17:39:58 85° ESE 17:45:17 10° NNE
Cosmos 1814 Rocket 4.2 17:35:43 10° NNW 17:40:55 71° WSW 17:46:03 10° S
SL-4 R/B 2.4 17:37:06 10° NW 17:41:36 60° NE 17:42:26 50° E
Okean-O 3.7 17:42:56 29° NE 17:42:56 29° NE 17:45:47 10° N
Meteor 1-22 Rocket 4.1 17:37:33 10° S 17:42:55 88° W 17:48:31 10° N
CZ-4 R/B 1.7 17:40:28 10° S 17:44:36 71° WSW 17:48:47 10° NNW
Cosmos 1428 Rocket 4.4 17:38:38 10° S 17:44:48 86° E 17:51:04 10° N
Cosmos 2333 Rocket 3.6 17:39:52 10° SSE 17:42:08 22° SSE 17:42:08 22° SSE
Cosmos 2208 Rocket 4.0 17:40:23 10° NNW 17:45:46 66° ENE 17:47:42 39° SE
Cosmos 2227 4.2 17:41:17 10° NNW 17:46:55 78° WSW 17:51:04 19° SSE
CSL-04 Debris 4.2 17:46:19 42° ESE 17:47:43 54° ENE 17:52:58 10° N
Cosmos 1627 Rocket 4.3 17:41:59 10° S 17:48:05 82° E 17:54:14 10° N
Cosmos 2195 Rocket 4.5 17:42:16 10° S 17:48:28 85° W 17:54:47 10° N
ISS -2.5 17:48:10 10° WNW 17:51:17 36° SW 17:51:28 35° SW
BREEZE M DEB (TANK) 3.1 17:44:47 10° WSW 17:52:01 52° NW 17:53:02 38° NNE
Cosmos 2360 Rocket 2.0 17:47:49 10° SSW 17:53:25 70° ESE 17:59:02 10° NNE
Cosmos 1782 Rocket 4.0 17:54:47 10° SSW 17:59:03 58° W 18:03:21 10° N
USA 81 3.9 17:56:04 10° N 18:01:22 78° E 18:02:39 52° SSE
YAOGAN 1 4.4 17:59:12 10° SSW 18:02:59 30° W 18:06:47 10° NW
Cosmos 2026 Rocket 4.0 17:58:46 10° SSW 18:04:49 74° W 18:10:53 10° N
Okean O Rocket 3.2 18:02:49 10° SSW 18:06:46 34° W 18:10:46 10° NNW
Cosmos 1025 Rocket 3.6 18:04:45 10° N 18:07:56 49° N 18:07:56 49° N
Lacrosse 4 Rocket 2.7 18:07:57 10° SW 18:11:46 38° WNW 18:13:56 22° N
CSL-04 Rocket 3.4 18:13:27 80° SE 18:13:42 83° ENE 18:19:07 10° NNW
Meteor 2-5 Rocket 4.4 18:13:30 10° NNW 18:18:51 52° W 18:23:04 16° SSW
Cosmos 1553 Rocket 4.0 18:15:53 10° N 18:21:52 67° ENE 18:21:52 67° ENE
Cosmos 2322 Rocket 3.3 18:17:08 10° SW 18:22:31 43° WNW 18:27:57 10° N
COSMOS 2455 4.2 18:17:39 10° SSW 18:20:06 26° S 18:20:06 26° S
NOSS 3-3 (A) 4.0 18:25:11 10° SW 18:30:35 66° NW 18:32:26 43° N
BREEZE-M DEB (TANK) 3.9 18:21:20 10° SW 18:29:16 46° SSW 18:29:16 46° SSW
NOSS 3-3 (C) 4.0 18:25:17 10° SW 18:30:41 67° NW 18:32:21 46° N
Cosmos 1975 Rocket 4.4 18:29:52 10° NNW 18:33:08 38° WNW 18:33:08 38° WNW
Aureole 1 Rocket 4.2 18:32:03 10° SSW 18:39:52 80° WNW 18:46:09 10° NNE
Cosmos 1844 Rocket 3.5 18:48:47 10° NNW 18:52:59 47° NW 18:52:59 47° NW
